NOAA 16 DEB, 42368

Orbit data source: Space-Track

NOAA 16 DEB, 42368 is space debris in SSO originally from a launch on Thu, 21 Sep 2000 UTC launched from the Air Force Western Test Range (AFWTR). Debris objects in space refer to the collection of defunct objects orbiting the Earth. Examples of debris include non-operational satellites, rocket bodies, and fragments generated from explosions, collisions, or faulty payload assembly.

Loading next visibility...
Identifier
42368, 2000-055RL
Orbit
SSO
Country
Flag of USUS
Related business
Manufacturer
Unknown
Mission
Spacecraft
Bus & Motor
Unknown
Mass
Unknown
Launch date (UTC)
2000-09-21 (25 years ago)
Launch vehicle
Unknown
Launch site
Air Force Western Test Range (AFWTR)
Object type
Payload
Rocket body
Debris
Shape & HBR
Unknown
Radar Cross Section
Small (<0.1 m²)

Expand to show TLE details & history
Last TLE update: 9 hours ago

TLE from 9 hours ago
0 NOAA 16 DEB
1 42368U 00055RL  25259.16579297  .00004011  00000-0  16776-2 0  9997
2 42368  98.7340 336.3235 0013282 144.8995 215.3063 14.26596093488147
Epoch: 2025-09-16T03:58Z
TLE epoch observation values (Epoch: 2025-09-16T03:58:44.512Z)
Latitude
-0°
Longitude
-78.72197°
Altitude
813.844 km
Speed
7.442 km/s
True Right ascension
22h 25m 17s
True Declination
0° 00' 00"
Sunlit
Object was in full shadow at epoch
Visualization orbit readout
Latitude
Unknown
Longitude
Unknown
Altitude
Unknown
Speed
Unknown
Apparent Right ascension
Unknown
Apparent Declination
Unknown
Sunlit
N/A
Visualization observer readout
Local Sidereal Time
05:12:01
Azimuth
Unknown
Elevation
Unknown
Doppler factor
Unknown
Orbital elements
Apogee altitude
809.817 km
Perigee altitude
790.748 km
Semi-major axis
7,178.419 km
Eccentricity
0.00133
Inclination
98.734°
RAAN
336.3235°
Arg. of periapsis
144.8995°
True anomaly
215.21846°
Mean anomaly
215.3063°
Eccentric anomaly
215.26237°
Mean motion
3.56862 °/min
Orbital period
100.88 mins
BSTAR
0.0016776
Loading maneuver chart data...
Computing Atmospheric mass density...
Loading historical data...
Loading historical data...
Loading historical data...
Loading historical data...
Loading historical data...
Loading historical data...
Loading historical data...

Documentation

Showing up to 5 results
|